Total_Precipitation_Accumulation
0.75 0.97 1.19 1.44 1.70 2.07 2.24 2.19 2.16 2.33 2.54 2.37 2.13 1.90 1.66 1.47 1.28 1.11 0.98 0.87 0.76 0.67 0.54 0.44 0.39 0.34 0.30 0.27 0.24 0.22 0.19 0.14 0.12 0.11 0.08 0.04 0.03 0.02 0.01 0.02 0.02 0.02 0.01
0.66 0.87 1.07 1.29 1.47 1.89 2.15 2.16 2.23 2.36 2.53 2.40 2.24 2.16 2.09 1.88 1.67 1.52 1.24 1.01 0.87 0.77 0.69 0.58 0.48 0.43 0.40 0.37 0.35 0.32 0.28 0.24 0.22 0.22 0.21 0.12 0.06 0.03 0.03 0.03 0.03 0.03 0.03
0.60 0.74 0.90 1.10 1.20 1.47 1.85 2.00 2.06 2.20 2.31 2.47 2.71 2.68 2.54 2.20 1.77 1.47 1.35 1.24 1.17 1.05 0.89 0.84 0.73 0.59 0.51 0.45 0.44 0.41 0.37 0.33 0.29 0.28 0.34 0.31 0.18 0.10 0.06 0.05 0.05 0.05 0.05
0.57 0.67 0.78 0.89 1.01 1.14 1.47 1.81 1.99 2.10 2.11 2.19 2.42 2.53 2.38 2.02 1.67 1.47 1.44 1.46 1.40 1.34 1.26 1.10 0.99 0.86 0.72 0.60 0.58 0.55 0.51 0.50 0.45 0.40 0.36 0.37 0.35 0.34 0.23 0.11 0.08 0.08 0.08
0.61 0.65 0.69 0.73 0.82 0.95 1.25 1.57 1.81 2.01 2.02 1.93 2.01 2.23 2.32 2.20 2.02 1.84 1.65 1.52 1.48 1.41 1.38 1.28 1.16 1.04 0.94 0.86 0.80 0.73 0.70 0.67 0.63 0.57 0.51 0.48 0.44 0.44 0.48 0.32 0.17 0.15 0.14
0.67 0.66 0.67 0.68 0.73 0.80 0.96 1.25 1.53 1.83 1.99 1.92 1.92 1.99 2.04 2.12 2.03 1.86 1.78 1.62 1.56 1.50 1.37 1.33 1.26 1.16 1.10 1.03 1.00 0.98 0.91 0.85 0.79 0.74 0.68 0.68 0.65 0.58 0.64 0.61 0.41 0.34 0.28
0.59 0.57 0.57 0.58 0.67 0.74 0.80 0.99 1.15 1.40 1.68 1.81 1.84 1.86 1.92 1.95 1.94 1.89 1.84 1.77 1.59 1.47 1.41 1.37 1.36 1.31 1.21 1.17 1.16 1.11 1.02 0.97 0.91 0.87 0.82 0.81 0.78 0.77 0.82 0.88 0.73 0.60 0.45
0.62 0.59 0.56 0.60 0.69 0.71 0.77 0.88 0.97 1.10 1.32 1.51 1.59 1.60 1.71 1.77 1.71 1.73 1.70 1.64 1.55 1.44 1.44 1.47 1.41 1.38 1.33 1.25 1.20 1.14 1.07 1.05 1.01 0.95 0.93 0.88 0.82 0.85 0.90 0.96 1.03 0.93 0.68
0.54 0.56 0.57 0.63 0.66 0.68 0.73 0.81 0.88 0.92 1.03 1.19 1.32 1.41 1.44 1.43 1.37 1.37 1.37 1.39 1.39 1.33 1.28 1.29 1.30 1.28 1.25 1.22 1.21 1.14 1.06 1.04 1.02 0.98 0.95 0.92 0.85 0.85 0.90 0.98 1.12 1.26 1.12
0.53 0.55 0.57 0.58 0.58 0.60 0.63 0.70 0.74 0.74 0.80 0.90 0.97 1.11 1.21 1.19 1.19 1.19 1.16 1.11 1.11 1.11 1.11 1.11 1.12 1.11 1.11 1.10 1.09 1.06 1.03 1.01 0.95 0.92 0.90 0.86 0.82 0.84 0.90 0.98 1.07 1.21 1.31
0.54 0.59 0.61 0.60 0.57 0.58 0.59 0.61 0.57 0.58 0.63 0.71 0.77 0.81 0.92 0.99 1.01 1.01 0.95 0.95 0.90 0.87 0.86 0.85 0.86 0.90 0.93 0.94 0.92 0.91 0.92 0.94 0.92 0.92 0.94 0.92 0.89 0.89 0.88 0.91 0.97 1.05 1.15
0.49 0.53 0.59 0.57 0.56 0.57 0.58 0.59 0.52 0.51 0.53 0.59 0.63 0.65 0.73 0.82 0.84 0.88 0.84 0.79 0.79 0.73 0.71 0.69 0.66 0.66 0.68 0.71 0.71 0.71 0.74 0.80 0.81 0.82 0.86 0.87 0.88 0.90 0.87 0.86 0.85 0.84 0.86
0.43 0.45 0.46 0.50 0.52 0.53 0.54 0.58 0.56 0.50 0.49 0.51 0.54 0.57 0.63 0.68 0.71 0.72 0.76 0.69 0.70 0.66 0.61 0.59 0.57 0.55 0.54 0.55 0.55 0.57 0.61 0.65 0.68 0.69 0.71 0.73 0.77 0.77 0.73 0.71 0.70 0.69 0.72
0.33 0.33 0.36 0.41 0.45 0.48 0.50 0.52 0.55 0.53 0.52 0.50 0.48 0.50 0.55 0.63 0.66 0.61 0.63 0.62 0.64 0.67 0.59 0.52 0.50 0.50 0.52 0.54 0.55 0.57 0.60 0.61 0.62 0.63 0.63 0.61 0.59 0.58 0.58 0.60 0.61 0.67 0.73
0.22 0.24 0.26 0.28 0.33 0.38 0.40 0.41 0.44 0.47 0.49 0.49 0.46 0.46 0.48 0.55 0.60 0.54 0.53 0.54 0.55 0.63 0.64 0.58 0.52 0.52 0.52 0.55 0.59 0.60 0.62 0.62 0.62 0.60 0.57 0.54 0.54 0.52 0.51 0.55 0.59 0.66 0.76
0.13 0.14 0.15 0.17 0.18 0.23 0.27 0.29 0.32 0.38 0.43 0.44 0.44 0.43 0.43 0.47 0.56 0.55 0.53 0.52 0.54 0.58 0.63 0.66 0.65 0.61 0.60 0.69 0.67 0.62 0.62 0.64 0.63 0.61 0.55 0.53 0.56 0.53 0.52 0.55 0.63 0.74 0.87
0.10 0.09 0.09 0.10 0.11 0.13 0.16 0.19 0.21 0.25 0.30 0.37 0.40 0.40 0.42 0.46 0.54 0.57 0.57 0.61 0.67 0.69 0.69 0.71 0.72 0.72 0.74 0.76 0.67 0.64 0.59 0.59 0.59 0.57 0.54 0.50 0.48 0.51 0.46 0.50 0.62 0.71 0.79
0.11 0.11 0.10 0.10 0.10 0.11 0.12 0.12 0.15 0.18 0.22 0.26 0.31 0.33 0.35 0.40 0.43 0.52 0.59 0.64 0.68 0.72 0.76 0.77 0.74 0.70 0.70 0.67 0.59 0.58 0.53 0.55 0.55 0.52 0.50 0.51 0.50 0.49 0.53 0.58 0.65 0.58 0.53
0.10 0.10 0.10 0.10 0.10 0.10 0.11 0.12 0.15 0.19 0.21 0.26 0.31 0.33 0.39 0.43 0.45 0.50 0.54 0.58 0.64 0.69 0.66 0.66 0.67 0.66 0.66 0.60 0.53 0.51 0.48 0.49 0.48 0.47 0.46 0.48 0.47 0.54 0.67 0.73 0.73 0.59 0.46
0.09 0.10 0.11 0.11 0.12 0.15 0.17 0.18 0.20 0.23 0.25 0.30 0.36 0.37 0.43 0.51 0.53 0.55 0.54 0.51 0.55 0.62 0.60 0.55 0.53 0.51 0.53 0.53 0.48 0.47 0.44 0.46 0.44 0.43 0.42 0.47 0.48 0.58 0.70 0.69 0.71 0.65 0.53
0.10 0.11 0.12 0.14 0.18 0.23 0.26 0.27 0.29 0.32 0.32 0.33 0.36 0.36 0.40 0.45 0.46 0.47 0.47 0.45 0.45 0.47 0.46 0.45 0.46 0.43 0.43 0.44 0.41 0.39 0.38 0.40 0.42 0.40 0.37 0.38 0.53 0.62 0.65 0.61 0.54 0.61 0.70
0.14 0.13 0.14 0.16 0.18 0.25 0.31 0.32 0.31 0.32 0.31 0.31 0.33 0.34 0.36 0.39 0.40 0.40 0.42 0.42 0.39 0.39 0.37 0.35 0.36 0.36 0.36 0.37 0.36 0.36 0.36 0.41 0.38 0.35 0.32 0.35 0.49 0.52 0.51 0.49 0.54 0.67 0.68
0.14 0.13 0.14 0.14 0.16 0.20 0.26 0.33 0.33 0.31 0.31 0.31 0.33 0.33 0.32 0.33 0.36 0.35 0.36 0.35 0.32 0.30 0.29 0.28 0.28 0.29 0.30 0.34 0.38 0.39 0.43 0.44 0.39 0.35 0.40 0.43 0.43 0.41 0.40 0.48 0.57 0.57 0.50
0.13 0.13 0.13 0.14 0.17 0.18 0.20 0.24 0.26 0.27 0.28 0.28 0.29 0.31 0.32 0.30 0.28 0.29 0.31 0.32 0.31 0.30 0.27 0.27 0.26 0.26 0.27 0.30 0.32 0.37 0.40 0.41 0.42 0.42 0.42 0.39 0.38 0.38 0.40 0.44 0.44 0.42 0.49
0.13 0.15 0.14 0.15 0.16 0.15 0.16 0.16 0.17 0.19 0.23 0.26 0.26 0.25 0.26 0.28 0.27 0.26 0.27 0.30 0.30 0.33 0.34 0.32 0.31 0.30 0.28 0.30 0.39 0.42 0.41 0.43 0.44 0.45 0.38 0.33 0.33 0.33 0.35 0.38 0.39 0.41 0.50
0.14 0.14 0.14 0.14 0.15 0.15 0.15 0.15 0.16 0.17 0.20 0.22 0.23 0.24 0.24 0.24 0.24 0.25 0.24 0.27 0.29 0.33 0.36 0.38 0.38 0.35 0.34 0.37 0.41 0.43 0.45 0.47 0.49 0.46 0.38 0.36 0.34 0.35 0.38 0.41 0.43 0.45 0.54